User: anonymous   Login
Location: New Mesquite
(33.1168°N, 96.4336°W)
Time: 07:08:29
(UTC+00:00)
Language:

CZ-2C R/B - Orbit

View from above orbital plane
View from above orbital plane
View from above satellite
View from above satellite

Ground track
Ground track

The orbit data is extracted from the following two-line orbital elements,

1 31114U 07010B   22147.90094756  .00000142  00000-0  84715-4 0  9990
2 31114  98.2396 322.4516 0059619 359.1578   0.9489 14.19429181783648
Epoch (UTC): 27 May 2022 21:37:21
Eccentricity: 0.0059619
inclination: 98.2396°
perigee height: 784 km
apogee height: 870 km
right ascension of ascending node: 322.4516°
argument of perigee: 359.1578°
revolutions per day: 14.19429181
mean anomaly at epoch: 0.9489°
orbit number at epoch: 78364

The dashed part of the orbit path shows where the satellite is in the earth's shadow,  

DLR